Flag for U.S.A. Weather past 2 weeks in Victorville, California, U.S.A.

66 °F


Feels Like: 66 °F
Forecast: 49 / 81 °F
Wind: No wind

Location: George Air Force Base / Victorvi

Current Time: Oct 6, 2015 at 8:27:22 PM

Latest Report: Oct 6, 2015 at 7:55 PM

Visibility: 10 mi

Pressure: 30.11 "Hg (27.32 "Hg at 830m altitude)

Humidity: 49%

Dew point: 46 °F

Location of VictorvilleLocation

Historic Weather in Victorville — Graph


Victorville temperature yesterday

Maximum temperature yesterday: 66 °F (at 12:55 PM)
Minimum temperature yesterday: 50 °F (at 7:35 AM)
Average temperature yesterday: 57 °F

Past Weeks' High & Low Weather Summary

High99 °F (Sep 24, 3:55 PM)88% (Oct 4, 11:35 PM)30.18 "Hg (Oct 4, 11:35 PM)
Low50 °F (Oct 5, 7:35 AM)7% (Sep 29, 2:55 PM)29.58 "Hg (Oct 3, 4:55 PM)
Average73 °F39%29.93 "Hg
* Reported Sep 21 7:15 PM — Oct 6 7:15 PM, Victorville, Weather by CustomWeather, © 2015

Note: Actual official high and low records may vary slightly from our data, if they occured in-between our weather recording intervals... More about our weather records


Victorville weather history for previous 24 hours

Time TempWeatherWind HumidityBarometerVisibility
7:15 PM
Tue, Oct 6
70 °FPartly sunny.No wind40%30.10 "Hg10 mi
6:55 PM70 °FScattered clouds.No wind40%30.10 "Hg10 mi
6:15 PM72 °FSunny.No wind38%30.10 "Hg10 mi
5:55 PM72 °FSunny.No wind38%30.10 "Hg10 mi
5:35 PM72 °FSunny.No wind36%30.10 "Hg10 mi
5:15 PM72 °FSunny.No wind36%30.09 "Hg10 mi
4:55 PM72 °FSunny.No wind36%30.09 "Hg10 mi
4:35 PM73 °FSunny.No wind33%30.09 "Hg10 mi
4:15 PM73 °FSunny.No wind33%30.10 "Hg10 mi
3:55 PM73 °FSunny.No wind33%30.10 "Hg10 mi
3:15 PM72 °FSunny.No wind38%30.11 "Hg10 mi
2:15 PM72 °FSunny.No wind38%30.12 "Hg10 mi
1:55 PM72 °FScattered clouds.No wind38%30.13 "Hg10 mi
1:35 PM70 °FScattered clouds.No wind40%30.14 "Hg10 mi
1:15 PM70 °FSunny.No wind40%30.15 "Hg10 mi
12:55 PM70 °FSunny.No wind40%30.16 "Hg10 mi
12:35 PM68 °FSunny.No wind43%30.16 "Hg10 mi
12:15 PM66 °FSunny.No wind49%30.17 "Hg10 mi
11:55 AM66 °FSunny.No wind49%30.17 "Hg10 mi
11:15 AM64 °FPartly sunny.No wind52%30.17 "Hg10 mi
10:55 AM64 °FBroken clouds.No wind52%30.17 "Hg10 mi
10:15 AM63 °FMostly cloudy.No wind56%30.18 "Hg10 mi
9:55 AM63 °FOvercast.No wind56%30.17 "Hg10 mi
9:35 AM61 °FOvercast.No wind59%30.17 "Hg10 mi
9:15 AM59 °FPartly sunny.No wind63%30.16 "Hg10 mi
8:55 AM57 °FScattered clouds.No wind67%30.15 "Hg10 mi
8:35 AM55 °FSunny.No wind72%30.14 "Hg10 mi
8:15 AM55 °FSunny.No wind72%30.14 "Hg10 mi
7:55 AM52 °FSunny.No wind82%30.13 "Hg10 mi
7:35 AM50 °FClear.No wind88%30.12 "Hg10 mi
7:15 AM52 °FClear.No wind82%30.11 "Hg10 mi
6:55 AM52 °FPassing clouds.No wind82%30.10 "Hg10 mi
6:35 AM54 °FOvercast.No wind77%30.10 "Hg10 mi
6:15 AM54 °FOvercast.No wind77%30.10 "Hg10 mi
5:55 AM52 °FOvercast.No wind82%30.09 "Hg10 mi
5:35 AM52 °FPassing clouds.No wind82%30.08 "Hg10 mi
5:15 AM52 °FClear.No wind82%30.08 "Hg10 mi
4:55 AM52 °FPassing clouds.No wind82%30.07 "Hg10 mi
4:35 AM52 °FPassing clouds.No wind77%30.07 "Hg10 mi
4:15 AM52 °FPassing clouds.No wind77%30.06 "Hg10 mi
3:55 AM52 °FClear.No wind77%30.06 "Hg10 mi
3:35 AM52 °FPassing clouds.No wind77%30.06 "Hg10 mi
3:15 AM52 °FPassing clouds.No wind77%30.06 "Hg10 mi
2:55 AM50 °FPassing clouds.No wind82%30.06 "Hg10 mi
2:35 AM50 °FClear.No wind82%30.06 "Hg10 mi
2:15 AM52 °FClear.No wind77%30.06 "Hg10 mi
1:55 AM52 °FClear.No wind77%30.06 "Hg10 mi
1:35 AM52 °FClear.No wind82%30.06 "Hg10 mi
1:15 AM52 °FClear.No wind82%30.06 "Hg10 mi
12:55 AM52 °FClear.No wind82%30.06 "Hg10 mi
12:35 AM54 °FClear.No wind77%30.06 "Hg10 mi
12:15 AM55 °FPassing clouds.No wind72%30.05 "Hg10 mi
11:55 PM
Mon, Oct 5
55 °FOvercast.No wind72%30.06 "Hg10 mi
11:35 PM55 °FOvercast.No wind77%30.06 "Hg10 mi
11:15 PM55 °FOvercast.No wind77%30.05 "Hg10 mi
10:55 PM55 °FOvercast.No wind82%30.05 "Hg10 mi
10:35 PM55 °FOvercast.No wind82%30.05 "Hg10 mi
10:15 PM55 °FOvercast.No wind77%30.04 "Hg10 mi
9:35 PM55 °FClear.No wind77%30.03 "Hg10 mi
9:15 PM57 °FClear.No wind72%30.03 "Hg10 mi
8:55 PM57 °FPassing clouds.No wind72%30.03 "Hg10 mi
8:35 PM57 °FPassing clouds.No wind72%30.02 "Hg10 mi
8:15 PM57 °FPartly cloudy.No wind72%30.01 "Hg10 mi
Weather by CustomWeather, © 2015

See weather overviewHow to use our weather pages